EHI
3 3 3 2 3 3 3 1 1 1 3 3 3 3 4 4 3 2 3 7 10 12 14 15 14 12 10 8 5 5 5 5 4 3 3 3 1 0 0 0 0 0 0
4 3 3 3 3 3 3 2 2 2 2 2 2 2 3 3 2 1 1 3 7 9 11 12 13 12 10 8 6 6 7 5 4 3 3 3 2 1 0 0 0 0 0
4 4 3 3 3 3 3 3 3 1 1 1 0 1 1 2 1 1 0 1 3 5 7 8 10 11 10 8 6 6 7 5 4 3 3 3 2 1 0 0 0 0 0
5 4 4 3 3 3 3 2 1 0 0 0 0 0 0 0 1 1 0 0 0 2 3 6 8 9 9 7 4 4 5 4 4 4 4 3 2 0 0 0 0 0 0
6 6 5 3 3 3 1 1 0 0 0 0 0 0 0 0 0 0 0 0 0 0 1 3 5 6 5 4 2 2 4 4 3 3 4 3 2 1 0 0 0 0 0
8 8 7 5 4 3 1 0 0 0 0 0 0 0 0 0 0 0 0 0 0 0 0 1 2 2 1 1 0 1 3 5 4 2 2 3 3 2 1 0 0 0 0
7 8 9 8 6 3 1 1 0 0 0 0 0 0 0 0 0 0 0 0 0 0 1 1 0 0 0 0 0 1 2 3 3 2 1 2 2 2 1 0 0 0 0
6 7 8 8 6 3 2 1 1 1 0 0 0 0 0 0 0 0 0 0 0 0 1 2 1 1 0 0 0 2 3 4 3 3 3 2 2 1 0 0 0 0 0
6 6 7 6 5 3 2 2 2 1 0 0 0 0 0 0 0 0 0 0 0 0 1 2 2 2 1 0 0 1 4 6 7 6 6 6 5 2 0 0 0 0 0
5 5 5 5 4 3 3 2 1 1 1 1 0 0 0 0 0 0 0 0 0 0 0 1 2 2 1 0 0 1 2 5 7 8 8 8 9 6 3 1 0 0 0
2 2 3 4 3 3 3 2 1 0 1 1 0 0 0 0 0 0 0 0 0 0 0 0 1 1 1 1 1 1 1 2 4 6 7 8 9 9 6 3 1 1 0
1 1 2 3 3 3 3 1 1 1 1 1 0 0 1 1 0 0 0 0 0 0 0 0 0 1 2 2 2 2 1 0 1 3 4 4 5 8 7 5 3 2 1
2 2 3 4 3 3 3 2 1 2 1 1 0 1 1 1 1 0 0 0 0 0 0 0 0 1 2 2 2 2 1 0 0 1 1 1 2 4 5 4 3 3 3
3 2 3 4 4 3 3 2 1 1 1 1 1 1 1 1 1 1 1 1 0 0 0 0 0 0 1 1 1 1 0 0 0 0 0 0 0 1 2 1 1 2 2
3 3 4 5 4 3 3 3 1 0 0 1 1 1 1 1 1 1 1 1 0 0 0 0 0 0 0 0 0 0 0 0 0 0 0 0 0 0 0 0 0 1 1
4 4 5 6 5 4 3 3 2 1 0 0 0 1 1 2 1 1 1 1 0 0 0 0 0 0 0 1 0 0 0 0 0 0 0 0 0 0 0 0 0 0 0
5 5 6 7 7 6 5 4 3 1 0 0 0 0 1 1 1 1 0 0 0 0 0 0 0 0 0 0 0 0 0 0 0 0 0 0 0 0 0 0 0 0 0
7 7 8 9 9 9 7 5 4 3 2 0 0 0 0 0 0 0 0 0 0 0 0 0 0 0 0 0 0 1 1 0 0 0 0 0 0 0 0 0 0 0 0
8 9 9 9 9 9 8 7 6 5 4 2 1 0 0 0 0 0 0 0 1 0 0 0 0 0 0 0 1 2 2 1 0 0 0 0 0 0 0 0 0 0 0
8 9 9 9 9 8 8 7 6 6 6 5 3 1 0 0 0 0 0 0 0 0 0 0 0 0 0 1 2 4 4 2 0 0 0 1 0 0 0 0 0 0 0
8 9 9 9 9 8 7 6 6 6 6 6 5 3 1 0 0 0 0 0 0 0 0 0 0 0 0 1 3 5 5 3 1 0 0 0 0 1 1 0 0 0 0
10 11 12 11 10 9 8 7 6 6 6 6 6 4 2 1 0 0 0 0 0 1 0 0 0 0 0 1 3 4 5 4 2 1 0 0 1 2 2 1 1 0 0
13 13 13 12 11 10 8 7 6 6 6 6 6 5 4 2 1 0 0 0 0 0 0 0 0 0 0 1 2 3 3 3 2 2 2 2 3 3 3 3 2 1 0
15 14 14 14 13 11 9 6 5 6 6 6 6 6 4 3 2 1 0 0 0 0 0 0 0 0 0 0 1 2 2 1 1 2 3 3 4 4 3 3 2 1 0
15 15 15 16 15 13 10 5 3 4 5 6 6 6 4 3 2 1 1 1 0 0 0 0 0 0 0 0 0 1 1 0 0 1 2 3 4 3 3 3 2 1 0
16 16 17 17 16 14 10 5 2 3 4 5 6 6 4 2 1 1 2 2 1 0 0 0 0 0 0 0 0 0 0 0 0 1 2 3 3 3 3 2 1 0 0
Wind_Speed
1 1 1 1 1 1 1 1 1 1 1 1 1 2 2 2 3 3 3 9 10 10 11 11 11 11 10 9 9 10 10 11 12 12 12 12 12 11 11 11 10 10 9
1 1 1 1 1 1 1 1 1 1 1 1 1 1 2 3 3 3 2 5 9 9 10 10 11 10 10 9 9 10 10 12 13 13 12 12 11 11 11 11 11 10 9
1 1 1 0 1 1 1 0 0 0 0 1 1 1 2 3 3 3 3 3 4 8 10 10 10 10 9 9 8 9 9 11 11 12 12 12 11 11 11 11 10 10 9
1 1 0 1 1 0 1 1 0 1 0 0 1 1 1 2 3 4 3 3 3 3 7 10 10 9 9 8 7 8 8 9 10 11 11 11 11 10 10 10 10 10 9
1 1 0 1 0 0 0 0 0 1 1 0 1 1 1 2 2 4 4 4 4 4 3 6 9 9 9 8 8 8 9 9 9 10 11 11 11 11 10 9 10 10 9
0 1 0 0 0 1 1 1 0 0 1 1 0 1 0 1 1 2 3 4 4 5 4 4 4 6 9 9 9 9 9 10 10 11 11 11 11 11 10 10 10 10 10
0 1 0 0 0 0 0 1 1 0 0 1 1 1 2 1 1 2 2 2 4 4 4 5 4 3 4 9 10 10 10 11 11 10 10 11 11 11 11 10 10 10 11
0 1 1 0 0 0 1 1 1 0 1 0 1 1 1 2 2 2 1 2 3 3 4 6 5 5 4 3 6 10 10 11 11 11 10 10 11 11 11 11 10 10 11
0 0 0 0 0 0 0 1 1 2 1 1 1 2 2 2 2 2 2 2 3 3 3 4 6 6 6 4 4 7 9 9 10 11 10 10 10 10 11 11 11 10 11
1 1 1 1 0 0 0 1 1 1 1 1 1 1 2 3 2 1 2 2 3 3 4 4 5 5 6 4 5 6 8 8 9 10 10 11 11 10 10 11 11 11 11
1 1 1 0 1 1 1 1 1 1 1 2 1 1 1 1 1 2 2 2 2 2 3 3 3 3 4 5 4 6 9 8 9 9 10 10 11 11 11 11 11 11 11
1 1 1 1 1 1 1 2 1 1 1 1 1 1 1 1 1 2 2 2 2 2 2 2 3 3 4 4 6 8 9 9 8 9 9 10 10 11 11 11 11 11 11
1 2 1 1 1 2 1 1 1 1 1 1 2 1 1 2 2 2 2 1 1 1 1 1 3 3 4 4 5 9 9 8 8 8 8 9 9 10 11 11 11 11 11
1 2 1 1 1 1 1 1 1 1 1 1 1 1 1 2 1 1 2 2 1 1 1 2 2 3 3 3 4 7 5 7 8 8 8 8 9 9 9 9 10 9 9
1 1 1 2 2 1 1 1 1 2 1 1 1 1 1 2 1 1 1 2 3 2 2 2 2 3 3 3 4 4 4 7 9 9 9 9 9 9 9 9 9 8 8
1 1 2 1 1 1 1 1 1 2 1 2 1 1 1 1 1 1 1 1 2 3 2 2 2 2 3 3 5 5 5 7 9 9 9 9 9 9 9 9 9 9 8
1 1 1 1 1 1 1 1 2 2 1 2 2 1 2 1 1 1 1 1 1 2 2 2 1 1 2 2 2 3 4 4 5 8 9 9 9 10 10 9 9 9 9
1 1 1 1 1 1 1 1 2 2 1 2 2 2 2 1 1 1 1 1 2 2 2 2 2 1 2 3 3 4 3 4 4 7 9 9 10 10 10 10 10 10 9
1 1 1 1 1 1 1 2 2 2 2 2 2 2 2 1 2 2 2 2 2 2 2 2 2 2 2 2 1 2 3 2 4 5 8 9 10 10 10 10 10 10 10
1 1 1 2 2 2 2 2 2 2 2 3 2 2 2 2 2 2 2 2 2 2 2 2 2 2 2 1 1 1 2 2 3 3 4 5 7 9 11 11 11 10 10
1 1 1 2 2 2 2 2 2 2 2 3 3 3 3 3 3 3 2 2 2 2 2 2 2 2 2 1 2 2 3 2 3 3 2 3 3 4 6 9 10 11 11
2 2 2 2 3 3 4 4 3 2 2 3 3 4 4 3 4 4 4 3 2 3 3 3 3 4 5 4 3 3 2 2 3 2 2 4 3 4 4 5 8 10 11
2 3 3 3 3 4 5 4 4 2 3 3 4 3 4 4 3 3 4 5 5 5 5 5 5 6 5 5 4 4 4 4 5 4 3 4 3 5 5 5 9 10 11
3 3 3 3 3 4 5 4 4 3 3 3 4 4 4 4 4 3 3 4 4 5 6 5 6 7 7 5 6 6 6 5 4 3 4 3 3 4 4 4 8 10 11
3 3 3 3 3 4 4 4 4 2 3 4 4 4 4 4 6 5 3 4 5 6 7 7 8 8 9 8 6 3 3 3 4 3 3 3 3 2 3 4 4 8 9
3 2 2 3 3 4 4 4 3 2 3 3 3 4 5 5 6 5 4 4 6 6 5 5 5 6 6 7 7 6 5 4 3 3 3 3 2 2 2 2 3 3 5
Wind_Direction
172 180 213 233 232 214 201 210 245 271 253 234 220 201 190 168 165 171 176 181 180 186 190 190 190 192 195 196 200 201 200 198 195 192 191 192 192 192 193 188 186 186 186
165 176 187 209 223 203 202 194 202 216 223 198 210 194 175 163 172 174 173 184 187 190 196 195 193 196 199 200 201 202 204 201 196 194 193 193 193 193 191 190 189 187 189
166 168 152 234 253 220 185 155 222 204 179 177 207 202 174 167 172 175 177 178 185 194 197 197 198 201 200 203 207 207 204 197 192 195 194 193 192 192 191 193 193 191 191
155 149 143 255 258 187 136 154 138 95 87 187 227 230 189 174 182 184 186 189 186 195 201 200 201 203 205 206 210 210 205 197 194 193 192 191 191 190 192 194 195 192 193
157 144 185 252 239 84 106 225 120 155 157 231 240 225 195 183 191 190 190 196 194 193 196 203 202 202 205 211 212 211 207 203 198 195 193 192 191 190 188 193 195 194 196
159 137 192 311 38 73 27 27 85 122 168 182 270 332 247 198 190 189 200 198 197 200 198 199 196 209 211 212 217 216 212 205 204 203 200 197 194 193 192 193 195 197 199
133 133 117 335 61 129 240 227 166 79 272 107 73 0 343 328 208 208 202 188 198 205 196 197 198 197 212 215 218 219 219 213 210 208 205 201 198 196 196 196 199 202 202
226 154 147 219 218 124 343 317 167 151 256 151 133 86 349 336 314 243 216 199 204 197 197 202 204 202 206 209 215 214 214 212 210 209 206 204 201 198 198 201 204 205 205
42 69 91 55 33 116 240 266 215 187 226 266 166 151 156 227 290 299 244 222 212 202 205 203 205 205 206 206 211 211 208 207 207 206 203 199 197 197 202 205 206 208 210
8 19 41 53 33 349 245 258 223 205 183 248 269 212 187 177 176 262 297 260 232 217 211 214 211 208 205 201 201 197 202 204 204 208 206 204 201 199 203 208 210 213 216
346 358 21 1 321 309 286 293 287 223 188 202 219 225 220 223 190 170 249 282 269 246 222 212 202 203 204 199 200 200 199 201 205 211 212 209 204 203 208 213 216 218 220
338 340 334 321 304 304 293 282 270 241 234 224 226 211 188 185 209 181 208 249 253 259 241 224 206 205 202 198 203 198 196 198 202 208 211 211 209 208 211 215 220 222 222
332 317 319 308 308 297 294 307 316 286 257 241 232 236 228 218 196 181 175 212 240 273 268 248 228 215 209 198 208 202 198 196 204 208 210 212 211 210 212 216 219 222 223
284 314 331 328 329 330 335 343 339 303 301 267 267 249 250 255 220 192 178 167 166 301 291 262 248 223 217 201 209 199 202 200 206 212 212 213 213 213 214 217 217 219 219
313 342 331 338 340 351 3 8 346 316 310 286 278 268 259 269 257 228 193 165 159 190 247 256 256 240 220 206 207 201 204 207 209 212 212 212 211 212 214 215 216 217 216
329 343 334 334 338 344 350 2 337 320 324 307 297 308 298 278 281 265 229 181 155 165 211 241 236 247 221 217 201 203 213 215 214 213 214 214 214 214 214 213 214 215 217
309 324 320 324 319 324 328 339 323 335 333 319 320 324 298 292 310 303 262 189 176 159 188 255 247 260 205 223 215 213 217 216 223 220 218 217 216 217 217 215 215 217 219
285 281 295 305 295 311 309 303 308 326 317 310 307 317 302 299 300 296 290 245 226 202 182 228 261 249 234 229 216 219 225 223 228 227 222 222 221 218 216 216 215 215 217
279 299 309 276 276 287 293 280 272 284 286 283 285 287 287 282 285 283 268 258 245 231 193 198 239 234 241 241 214 246 238 237 236 233 224 227 227 226 223 219 217 216 216
239 265 269 256 254 263 276 282 278 275 280 280 280 274 274 259 264 269 270 260 248 231 209 206 236 241 243 248 184 224 262 252 243 238 228 224 229 232 231 224 219 218 219
258 251 271 274 265 266 276 289 281 282 276 279 282 275 270 273 278 268 270 252 241 231 222 226 243 249 250 241 223 218 233 249 248 230 223 231 224 232 231 226 223 221 221
269 262 261 260 269 283 295 288 280 272 273 272 279 278 274 270 279 279 279 270 237 223 227 228 241 242 245 237 229 222 221 224 258 233 208 244 211 227 230 219 221 220 221
262 265 263 258 259 272 284 280 275 263 264 266 268 270 280 286 275 274 280 279 266 252 228 218 232 242 242 233 224 230 225 221 235 219 190 245 226 233 232 228 220 218 220
254 256 259 255 260 285 286 275 278 266 265 267 263 257 259 275 275 260 267 278 272 266 249 235 232 242 242 233 219 223 225 235 253 236 183 225 234 235 240 233 220 216 217
259 259 258 251 254 281 287 279 276 270 273 277 275 272 261 266 275 263 254 268 278 281 270 256 250 251 250 246 227 209 217 219 251 253 200 199 230 241 243 241 231 218 216
255 264 271 257 249 263 283 282 272 261 274 283 286 278 269 275 282 269 245 251 267 275 284 292 282 276 263 251 232 213 208 212 229 247 216 190 216 198 254 244 230 220 219